�������l�o���
Date,Time,MP-1(��Sv/h),MP-2(��Sv/h),MP-3(��Sv/h),MP-4(��Sv/h),MP-5(��Sv/h),MP-6(��Sv/h),MP-7(��Sv/h),MP-8(��Sv/h),����,����(m/s),���J
2021/09/28,00:00,0.592,0.884,0.563,1.078,0.770,0.361,0.627,0.586,�k��,2.9,��
2021/09/28,00:10,0.592,0.883,0.559,1.080,0.770,0.362,0.626,0.585,�k��,2.9,��
2021/09/28,00:20,0.591,0.881,0.559,1.076,0.770,0.361,0.628,0.586,�k��,2.9,��
2021/09/28,00:30,0.592,0.882,0.559,1.078,0.770,0.360,0.627,0.585,�k��,2.9,��
2021/09/28,00:40,0.593,0.882,0.559,1.080,0.771,0.361,0.627,0.586,�k��,2.9,��
2021/09/28,00:50,0.592,0.882,0.558,1.078,0.769,0.360,0.626,0.587,�k��,2.9,��
2021/09/28,01:00,0.592,0.881,0.558,1.079,0.771,0.360,0.628,0.587,�k��,2.9,��
2021/09/28,01:10,0.591,0.881,0.559,1.077,0.769,0.360,0.626,0.587,�k��,2.9,��
2021/09/28,01:20,0.593,0.885,0.562,1.079,0.769,0.361,0.626,0.586,�k��,2.9,��
2021/09/28,01:30,0.590,0.881,0.562,1.080,0.769,0.361,0.627,0.585,�k��,2.9,��
2021/09/28,01:40,0.591,0.882,0.563,1.078,0.771,0.361,0.627,0.587,�k��,2.9,��
2021/09/28,01:50,0.593,0.882,0.562,1.078,0.769,0.361,0.628,0.586,�k��,2.9,��
2021/09/28,02:00,0.591,0.881,0.563,1.080,0.769,0.361,0.627,0.587,�k��,2.9,��
2021/09/28,02:10,0.590,0.884,0.563,1.079,0.768,0.360,0.627,0.586,�k��,2.9,��
2021/09/28,02:20,0.592,0.883,0.564,1.077,0.770,0.360,0.628,0.587,�k��,2.9,��
2021/09/28,02:30,0.591,0.881,0.563,1.079,0.771,0.361,0.627,0.588,�k��,2.9,��
2021/09/28,02:40,0.591,0.880,0.563,1.080,0.768,0.360,0.626,0.586,�k��,2.9,��
2021/09/28,02:50,0.592,0.884,0.565,1.080,0.769,0.361,0.627,0.586,�k��,2.9,��
2021/09/28,03:00,0.593,0.880,0.563,1.077,0.771,0.359,0.626,0.587,�k��,2.9,��
2021/09/28,03:10,0.591,0.883,0.564,1.080,0.769,0.362,0.628,0.587,�k��,2.9,��
2021/09/28,03:20,0.592,0.883,0.563,1.079,0.770,0.361,0.628,0.588,�k��,2.9,��
2021/09/28,03:30,0.593,0.880,0.563,1.079,0.770,0.360,0.627,0.587,�k��,2.9,��
2021/09/28,03:40,0.592,0.882,0.563,1.079,0.770,0.361,0.626,0.587,�k��,2.9,��
2021/09/28,03:50,0.591,0.881,0.564,1.080,0.769,0.361,0.626,0.586,�k��,2.9,��
2021/09/28,04:00,0.592,0.883,0.564,1.080,0.770,0.360,0.627,0.588,�k��,2.9,��
2021/09/28,04:10,0.592,0.883,0.563,1.078,0.772,0.358,0.626,0.586,�k��,2.9,��
2021/09/28,04:20,0.594,0.881,0.565,1.080,0.769,0.359,0.627,0.587,�k��,2.9,��
2021/09/28,04:30,0.591,0.881,0.564,1.079,0.771,0.360,0.628,0.587,�k��,2.9,��
2021/09/28,04:40,0.594,0.883,0.563,1.078,0.770,0.359,0.628,0.587,�k��,2.9,��
2021/09/28,04:50,0.592,0.883,0.562,1.079,0.768,0.361,0.627,0.587,�k��,2.9,��
2021/09/28,05:00,0.592,0.881,0.564,1.080,0.770,0.362,0.627,0.587,�k��,2.9,��
2021/09/28,05:10,0.593,0.881,0.564,1.079,0.770,0.361,0.627,0.588,�k��,2.9,��
2021/09/28,05:20,0.592,0.882,0.563,1.081,0.771,0.361,0.626,0.586,�k��,2.9,��
2021/09/28,05:30,0.590,0.881,0.564,1.079,0.770,0.360,0.626,0.587,�k��,2.9,��
2021/09/28,05:40,0.592,0.882,0.565,1.080,0.771,0.361,0.626,0.586,�k��,2.9,��
2021/09/28,05:50,0.594,0.883,0.564,1.080,0.770,0.362,0.626,0.587,�k��,2.9,��
2021/09/28,06:00,0.592,0.883,0.564,1.077,0.769,0.361,0.627,0.587,�k��,2.9,��
2021/09/28,06:10,0.593,0.883,0.565,1.077,0.771,0.360,0.625,0.586,�k��,2.9,��
2021/09/28,06:20,0.591,0.883,0.565,1.078,0.769,0.360,0.626,0.586,�k��,2.9,��
2021/09/28,06:30,0.593,0.881,0.564,1.082,0.770,0.359,0.626,0.587,�k��,2.9,��
2021/09/28,06:40,0.593,0.882,0.563,1.079,0.771,0.359,0.626,0.586,�k��,2.9,��
2021/09/28,06:50,0.593,0.884,0.565,1.079,0.768,0.360,0.624,0.588,�k��,2.9,��
2021/09/28,07:00,0.593,0.882,0.565,1.080,0.771,0.359,0.625,0.588,�k��,2.9,��
2021/09/28,07:10,0.593,0.884,0.564,1.080,0.770,0.362,0.626,0.589,�k��,2.9,��
2021/09/28,07:20,0.592,0.884,0.565,1.080,0.770,0.359,0.627,0.587,�k��,2.9,��
2021/09/28,07:30,0.592,0.882,0.564,1.079,0.769,0.360,0.626,0.586,�k��,2.9,��
2021/09/28,07:40,0.594,0.882,0.564,1.079,0.769,0.360,0.628,0.587,�k��,2.9,��
2021/09/28,07:50,0.594,0.882,0.565,1.081,0.769,0.360,0.627,0.587,�k��,2.9,��
2021/09/28,08:00,0.593,0.883,0.564,1.082,0.770,0.360,0.626,0.587,�k��,2.9,��
2021/09/28,08:10,0.592,0.884,0.564,1.081,0.768,0.360,0.627,0.584,�k��,2.9,��
2021/09/28,08:20,0.593,0.883,0.564,1.080,0.769,0.361,0.626,0.587,�k��,2.9,��
2021/09/28,08:30,0.592,0.882,0.566,1.080,0.770,0.359,0.626,0.587,�k��,2.9,��
2021/09/28,08:40,0.591,0.881,0.565,1.081,0.768,0.359,0.627,0.587,�k��,2.9,��
2021/09/28,08:50,0.591,0.879,0.564,1.083,0.769,0.359,0.627,0.586,�k��,2.9,��
2021/09/28,09:00,0.593,0.881,0.566,1.081,0.771,0.359,0.627,0.586,�k��,2.9,�L
2021/09/28,09:10,0.591,0.880,0.563,1.081,0.769,0.360,0.628,0.586,�k��,2.9,�L
2021/09/28,09:20,0.591,0.880,0.561,1.083,0.770,0.359,0.627,0.587,�k��,2.9,��
2021/09/28,09:30,0.591,0.877,0.565,1.076,0.770,0.359,0.626,0.586,�k��,2.9,��
2021/09/28,09:40,0.591,0.879,0.564,1.081,0.768,0.358,0.627,0.586,�k��,2.9,��
2021/09/28,09:50,0.591,0.878,0.562,1.081,0.770,0.358,0.628,0.586,�k��,2.9,��
2021/09/28,10:00,0.591,0.880,0.562,1.079,0.769,0.359,0.627,0.587,�k��,2.9,��
2021/09/28,10:10,0.591,0.880,0.565,1.080,0.768,0.357,0.626,0.588,�k��,2.9,��
2021/09/28,10:20,0.591,0.880,0.564,1.080,0.767,0.360,0.626,0.586,�k��,2.9,��
2021/09/28,10:30,0.592,0.881,0.562,1.080,0.768,0.358,0.628,0.586,�k��,2.9,��
2021/09/28,10:40,0.591,0.882,0.563,1.081,0.770,0.359,0.627,0.585,�k��,2.9,��
2021/09/28,10:50,0.591,0.877,0.565,1.080,0.768,0.358,0.626,0.585,�k��,2.9,��
2021/09/28,11:00,0.592,0.879,0.562,1.079,0.769,0.359,0.627,0.585,�k��,2.9,��
2021/09/28,11:10,0.591,0.877,0.563,1.079,0.768,0.358,0.628,0.586,�k��,2.9,��
2021/09/28,11:20,0.592,0.881,0.563,1.079,0.769,0.358,0.627,0.586,�k��,2.9,��
2021/09/28,11:30,0.592,0.879,0.562,1.079,0.769,0.359,0.628,0.585,�k��,2.9,��
2021/09/28,11:40,0.592,0.881,0.562,1.079,0.769,0.360,0.628,0.585,�k��,2.9,��
2021/09/28,11:50,0.592,0.882,0.563,1.080,0.767,0.359,0.628,0.585,�k��,2.9,��
2021/09/28,12:00,0.591,0.880,0.564,1.081,0.770,0.359,0.627,0.586,�k��,2.9,��
2021/09/28,12:10,0.592,0.881,0.563,1.082,0.770,0.360,0.627,0.585,�k��,2.9,��
2021/09/28,12:20,0.591,0.881,0.562,1.080,0.770,0.360,0.627,0.585,�k��,2.9,��
2021/09/28,12:30,0.592,0.881,0.563,1.079,0.769,0.360,0.627,0.586,�k��,2.9,��
2021/09/28,12:40,0.592,0.879,0.562,1.081,0.769,0.358,0.628,0.585,�k��,2.9,��
2021/09/28,12:50,0.591,0.882,0.562,1.080,0.770,0.359,0.628,0.586,�k��,2.9,��
2021/09/28,13:00,0.592,0.879,0.564,1.081,0.770,0.359,0.628,0.586,�k��,2.9,��
2021/09/28,13:10,0.592,0.879,0.563,1.081,0.770,0.360,0.627,0.585,�k��,2.9,��
2021/09/28,13:20,0.592,0.881,0.565,1.081,0.770,0.359,0.627,0.586,�k��,2.9,��
2021/09/28,13:30,0.593,0.879,0.562,1.080,0.769,0.359,0.629,0.586,�k��,2.9,��
2021/09/28,13:40,0.593,0.880,0.564,1.080,0.770,0.360,0.629,0.585,�k��,2.9,��
2021/09/28,13:50,0.592,0.881,0.563,1.081,0.771,0.358,0.627,0.585,�k��,2.9,��
2021/09/28,14:00,0.593,0.881,0.562,1.082,0.770,0.360,0.628,0.586,�k��,2.9,��
2021/09/28,14:10,0.593,0.882,0.565,1.083,0.771,0.360,0.629,0.586,�k��,2.9,��
2021/09/28,14:20,0.593,0.880,0.563,1.083,0.769,0.360,0.630,0.586,�k��,2.9,��
2021/09/28,14:30,0.594,0.882,0.564,1.083,0.771,0.359,0.628,0.583,�k��,2.9,��
2021/09/28,14:40,0.594,0.880,0.562,1.081,0.772,0.359,0.627,0.584,�k��,2.9,��
2021/09/28,14:50,0.594,0.882,0.565,1.081,0.770,0.360,0.629,0.585,�k��,2.9,��
2021/09/28,15:00,0.592,0.882,0.564,1.081,0.768,0.359,0.628,0.586,�k��,2.9,��
2021/09/28,15:10,0.593,0.883,0.561,1.081,0.770,0.360,0.629,0.586,�k��,2.9,��
2021/09/28,15:20,0.591,0.883,0.563,1.082,0.770,0.359,0.628,0.584,�k��,2.9,��
2021/09/28,15:30,0.593,0.884,0.564,1.083,0.769,0.360,0.628,0.585,�k��,2.9,��
2021/09/28,15:40,0.593,0.883,0.563,1.081,0.769,0.360,0.628,0.586,�k��,2.9,��
2021/09/28,15:50,0.593,0.883,0.562,1.083,0.770,0.360,0.629,0.585,�k��,2.9,��
2021/09/28,16:00,0.593,0.884,0.564,1.081,0.769,0.360,0.628,0.584,�k��,2.9,��
2021/09/28,16:10,0.592,0.885,0.564,1.081,0.770,0.358,0.627,0.585,�k��,2.9,��
2021/09/28,16:20,0.592,0.886,0.561,1.082,0.769,0.360,0.627,0.586,�k��,2.9,��
2021/09/28,16:30,0.593,0.885,0.564,1.083,0.769,0.360,0.628,0.586,�k��,2.9,��
2021/09/28,16:40,0.592,0.887,0.563,1.083,0.771,0.360,0.628,0.586,�k��,2.9,��
2021/09/28,16:50,0.592,0.887,0.562,1.082,0.771,0.360,0.630,0.584,�k��,2.9,��
2021/09/28,17:00,0.592,0.885,0.564,1.083,0.769,0.362,0.628,0.587,�k��,2.9,��
2021/09/28,17:10,0.592,0.884,0.565,1.083,0.772,0.362,0.627,0.587,�k��,2.9,��
2021/09/28,17:20,0.594,0.887,0.567,1.083,0.772,0.360,0.629,0.587,�k��,2.9,��
2021/09/28,17:30,0.594,0.885,0.566,1.084,0.773,0.362,0.629,0.585,�k��,2.9,��
2021/09/28,17:40,0.594,0.887,0.567,1.085,0.775,0.361,0.628,0.587,�k��,2.9,��
2021/09/28,17:50,0.596,0.886,0.565,1.084,0.772,0.361,0.630,0.586,�k��,2.9,��
2021/09/28,18:00,0.594,0.885,0.567,1.083,0.774,0.361,0.628,0.586,�k��,2.9,��
2021/09/28,18:10,0.594,0.886,0.566,1.085,0.774,0.362,0.632,0.588,�k��,2.9,��
2021/09/28,18:20,0.596,0.885,0.566,1.082,0.774,0.361,0.628,0.587,�k��,2.9,��
2021/09/28,18:30,0.595,0.885,0.566,1.082,0.774,0.362,0.627,0.587,�k��,2.9,��
2021/09/28,18:40,0.595,0.888,0.565,1.083,0.773,0.363,0.628,0.588,�k��,2.9,��
2021/09/28,18:50,0.596,0.886,0.564,1.082,0.774,0.360,0.629,0.587,�k��,2.9,��
2021/09/28,19:00,0.593,0.884,0.564,1.083,0.773,0.362,0.628,0.587,�k��,2.9,��
2021/09/28,19:10,0.595,0.886,0.565,1.083,0.773,0.361,0.630,0.587,�k��,2.9,��
2021/09/28,19:20,0.594,0.887,0.565,1.085,0.773,0.360,0.628,0.587,�k��,2.9,��
2021/09/28,19:30,0.594,0.887,0.564,1.085,0.773,0.361,0.627,0.587,�k��,2.9,��
2021/09/28,19:40,0.596,0.886,0.566,1.081,0.773,0.360,0.628,0.586,�k��,2.9,��
2021/09/28,19:50,0.594,0.886,0.566,1.083,0.773,0.361,0.629,0.587,�k��,2.9,��
2021/09/28,20:00,0.593,0.888,0.563,1.086,0.771,0.360,0.629,0.589,�k��,2.9,��
2021/09/28,20:10,0.593,0.886,0.564,1.082,0.774,0.361,0.627,0.588,�k��,2.9,��
2021/09/28,20:20,0.595,0.885,0.564,1.084,0.774,0.361,0.630,0.589,�k��,2.9,��
2021/09/28,20:30,0.593,0.887,0.564,1.083,0.771,0.362,0.628,0.587,�k��,2.9,��
2021/09/28,20:40,0.593,0.886,0.565,1.083,0.774,0.361,0.628,0.587,�k��,2.9,��
2021/09/28,20:50,0.593,0.886,0.566,1.083,0.772,0.361,0.627,0.588,�k��,2.9,��
2021/09/28,21:00,0.593,0.884,0.564,1.085,0.772,0.361,0.627,0.588,�k��,2.9,��
2021/09/28,21:10,0.593,0.884,0.563,1.083,0.772,0.362,0.627,0.587,�k��,2.9,��
2021/09/28,21:20,0.593,0.885,0.564,1.086,0.771,0.360,0.627,0.587,�k��,2.9,��
2021/09/28,21:30,0.594,0.887,0.564,1.083,0.772,0.362,0.627,0.588,�k��,2.9,��
2021/09/28,21:40,0.594,0.886,0.564,1.082,0.772,0.361,0.627,0.588,�k��,2.9,��
2021/09/28,21:50,0.595,0.885,0.565,1.083,0.774,0.361,0.628,0.587,�k��,2.9,��
2021/09/28,22:00,0.592,0.884,0.563,1.086,0.773,0.362,0.628,0.587,�k��,2.9,��
2021/09/28,22:10,0.594,0.886,0.564,1.084,0.772,0.363,0.628,0.588,�k��,2.9,��
2021/09/28,22:20,0.595,0.884,0.565,1.084,0.772,0.362,0.627,0.587,�k��,2.9,��
2021/09/28,22:30,0.591,0.885,0.565,1.083,0.773,0.361,0.627,0.588,�k��,2.9,��
2021/09/28,22:40,0.594,0.886,0.564,1.082,0.773,0.361,0.628,0.589,�k��,2.9,��
2021/09/28,22:50,0.593,0.884,0.564,1.085,0.772,0.362,0.628,0.588,�k��,2.9,�L
2021/09/28,23:00,0.591,0.885,0.563,1.085,0.771,0.361,0.628,0.588,�k��,2.9,�L
2021/09/28,23:10,0.595,0.887,0.565,1.082,0.770,0.362,0.627,0.588,�k��,2.9,��
2021/09/28,23:20,0.593,0.886,0.565,1.085,0.771,0.362,0.628,0.588,�k��,2.9,��
2021/09/28,23:30,0.594,0.886,0.566,1.087,0.772,0.361,0.626,0.587,�k��,2.9,��
2021/09/28,23:40,0.593,0.885,0.564,1.086,0.774,0.362,0.628,0.587,�k��,2.9,��
2021/09/28,23:50,0.594,0.885,0.564,1.085,0.773,0.362,0.629,0.588,�k��,2.9,��
